Cut Bank, MT

7:08 PM MST on February 21, 2017 (GMT -0700)
Cut Bank Municipal

Weather History for KCTB - November, 2013

Change the Weather History Date:

Saturday, November 16, 2013

  Actual Average Record
Temperature  
Mean Temperature 24 °F 30 °F  
Max Temperature 38 °F 40 °F 66 °F (1923)
Min Temperature 9 °F 20 °F -24 °F (1959)
Degree Days  
Heating Degree Days 41 35  
Month to date heating degree days 541 510  
Since 1 July heating degree days 1562 1734  
Cooling Degree Days 0 0  
Month to date cooling degree days 0 0  
Year to date cooling degree days 226 162  
Moisture  
Dew Point 16 °F    
Average Humidity 75    
Maximum Humidity 88    
Minimum Humidity 61    
Precipitation  
Precipitation T in 0.01 in 0.19 in (2016)
Month to date precipitation 0.35 0.20  
Year to date precipitation 14.40 10.52  
Snow  
Snow T in - - ()
Snow Depth 0.00 in    
Sea Level Pressure  
Sea Level Pressure 29.38 in    
Wind  
Wind Speed 15 mph (NW)    
Max Wind Speed 35 mph    
Max Gust Speed 43 mph    
Visibility 6 miles    
Events Snow    
T = Trace of Precipitation, MM = Missing Value Source: NWS Daily Summary

Daily Weather History Graph

Daily Weather History Graph

Search for Another Location

Airport or City:

Trip Planner

Search our weather history database for the weather conditions in past years. The results will help you decide how hot, cold, wet, or windy it might be!

Date:

Astronomy

Nov. 16, 2013 Rise Set
Actual Time 7:39 AM MST 4:48 PM MST
Civil Twilight 7:05 AM MST 5:22 PM MST
Nautical Twilight 6:26 AM MST 6:01 PM MST
Astronomical Twilight 5:49 AM MST 6:38 PM MST
Moon 4:29 PM MST (11/16) 6:35 AM MST (11/16)
Length of Visible Light 10h 17m
Length of Day
9h 08m
Waxing Gibbous, 99% of the Moon is Illuminated
Nov 16
Waxing Gibbous
Nov 17
Full
Nov 25
Last Quarter
Dec 2
New
Dec 9
First Quarter

Hourly Weather History & Observations

Time (MST) Temp. Windchill Dew Point Humidity Pressure Visibility Wind Dir Wind Speed Gust Speed Precip Events Conditions
12:56 AM 34.0 °F 25.0 °F 21.9 °F 61% 29.25 in 10.0 mi WSW 12.7 mph - N/A   Overcast
1:56 AM 32.0 °F 23.6 °F 21.9 °F 66% 29.24 in 10.0 mi WSW 10.4 mph - N/A   Partly Cloudy
2:56 AM 32.0 °F 22.5 °F 21.9 °F 66% 29.22 in 10.0 mi WSW 12.7 mph - N/A   Clear
3:56 AM 32.0 °F 24.8 °F 21.0 °F 64% 29.21 in 10.0 mi South 8.1 mph - N/A   Overcast
4:56 AM 30.9 °F 23.5 °F 21.9 °F 69% 29.21 in 10.0 mi SW 8.1 mph - N/A   Overcast
5:56 AM 32.0 °F - 21.9 °F 66% 29.20 in 10.0 mi Calm Calm - N/A   Overcast
6:56 AM 30.0 °F - 21.9 °F 72% 29.21 in 10.0 mi Calm Calm - N/A   Overcast
7:56 AM 30.0 °F 26.5 °F 21.9 °F 72% 29.22 in 10.0 mi North 3.5 mph - N/A   Mostly Cloudy
8:56 AM 32.0 °F 25.6 °F 23.0 °F 69% 29.23 in 10.0 mi WNW 6.9 mph - N/A   Overcast
9:56 AM 36.0 °F 27.5 °F 25.0 °F 64% 29.23 in 10.0 mi NW 12.7 mph - N/A   Overcast
10:56 AM 35.1 °F 26.9 °F 26.1 °F 70% 29.26 in 10.0 mi North 11.5 mph - N/A   Overcast
11:56 AM 33.1 °F 23.0 °F 27.0 °F 78% 29.27 in 9.0 mi NNW 15.0 mph - 0.00 in   Overcast
12:19 PM 33.1 °F 20.3 °F 27.0 °F 78% 29.22 in 1.8 mi NNW 24.2 mph - 0.00 in Snow Light Snow
12:25 PM 28.9 °F 13.5 °F 25.0 °F 85% 29.23 in 0.8 mi North 29.9 mph 34.5 mph 0.00 in Snow Light Snow
12:34 PM 25.0 °F 8.1 °F 21.0 °F 85% 29.24 in 1.0 mi North 29.9 mph 36.8 mph 0.00 in Snow Light Snow
12:45 PM 24.1 °F 7.4 °F 19.0 °F 81% 29.25 in 3.0 mi NNW 27.6 mph 35.7 mph 0.00 in Snow Light Snow
12:56 PM 23.0 °F 5.1 °F 19.0 °F 85% 29.34 in 5.0 mi NNW 31.1 mph 38.0 mph 0.00 in   Overcast
1:53 PM 21.2 °F 3.3 °F 15.8 °F 80% 29.28 in 10.0 mi NNW 28.8 mph 39.1 mph N/A   Overcast
1:56 PM 21.9 °F 3.4 °F 16.0 °F 78% 29.38 in 10.0 mi NNW 32.2 mph 41.4 mph N/A   Overcast
2:56 PM 19.9 °F 1.8 °F 12.9 °F 74% 29.42 in 10.0 mi NNW 27.6 mph 39.1 mph N/A   Overcast
3:30 PM 19.9 °F 1.5 °F 12.9 °F 74% 29.34 in 5.0 mi NNW 28.8 mph 36.8 mph 0.00 in Snow Light Snow
3:37 PM 19.0 °F 2.0 °F 12.0 °F 74% 29.34 in 9.0 mi NNW 23.0 mph 40.3 mph 0.00 in   Overcast
3:56 PM 19.0 °F 2.4 °F 12.0 °F 74% 29.45 in 9.0 mi NNW 21.9 mph 35.7 mph 0.00 in Snow Light Snow
4:56 PM 17.1 °F -0.3 °F 12.0 °F 81% 29.51 in 2.5 mi NNW 21.9 mph 32.2 mph 0.00 in Snow Light Snow
5:05 PM 17.1 °F 1.0 °F 12.0 °F 81% 29.40 in 3.0 mi NNW 18.4 mph 27.6 mph 0.00 in Snow Light Snow
5:13 PM 17.1 °F -1.0 °F 12.0 °F 81% 29.40 in 2.0 mi NNW 24.2 mph 31.1 mph 0.00 in Snow Light Snow
5:34 PM 16.0 °F -1.7 °F 12.0 °F 84% 29.40 in 1.2 mi NNW 21.9 mph - 0.00 in Snow Light Snow
5:51 PM 15.8 °F -2.3 °F 12.2 °F 86% 29.41 in 3.0 mi NNW 23.0 mph 31.1 mph 0.00 in Snow Light Snow
5:56 PM 16.0 °F -3.2 °F 10.9 °F 81% 29.53 in 5.0 mi NNW 26.5 mph 33.4 mph 0.00 in Snow Light Snow
6:56 PM 15.1 °F -2.5 °F 10.9 °F 84% 29.56 in 2.0 mi NNW 20.7 mph 28.8 mph 0.00 in Snow Light Snow
7:07 PM 15.1 °F -2.5 °F 12.0 °F 88% 29.45 in 1.2 mi NNW 20.7 mph - 0.00 in Snow Light Snow
7:19 PM 15.1 °F -2.5 °F 12.0 °F 88% 29.45 in 2.5 mi NNW 20.7 mph 24.2 mph 0.00 in Snow Light Snow
7:27 PM 15.1 °F -1.1 °F 10.9 °F 84% 29.46 in 4.0 mi NNW 17.3 mph - 0.00 in Snow Light Snow
7:56 PM 15.1 °F -2.0 °F 10.0 °F 80% 29.58 in 8.0 mi NNW 19.6 mph - 0.00 in Snow Light Snow
8:46 PM 14.0 °F -2.5 °F 10.0 °F 84% 29.49 in 2.0 mi NNW 17.3 mph - 0.00 in Snow Light Snow
8:56 PM 15.1 °F -0.1 °F 10.0 °F 80% 29.61 in 2.5 mi NNW 15.0 mph - 0.00 in Snow Light Snow
9:05 PM 14.0 °F -3.4 °F 10.0 °F 84% 29.50 in 4.0 mi NNW 19.6 mph - 0.00 in Snow Light Snow
10:31 PM 12.9 °F -2.2 °F 9.0 °F 84% 29.53 in 9.0 mi NW 13.8 mph - 0.00 in   Mostly Cloudy
10:45 PM 12.0 °F -1.3 °F 9.0 °F 88% 29.53 in 10.0 mi NNW 10.4 mph - 0.00 in   Mostly Cloudy
10:56 PM 12.0 °F -1.3 °F 9.0 °F 88% 29.65 in 10.0 mi NNW 10.4 mph - 0.00 in   Mostly Cloudy
11:43 PM 10.0 °F 0.4 °F 7.0 °F 87% 29.54 in 8.0 mi NW 5.8 mph - 0.00 in Snow Light Snow
11:56 PM 9.0 °F -3.2 °F 5.0 °F 84% 29.68 in 10.0 mi NW 8.1 mph - 0.00 in   Overcast